owner,sensor,date,latitude,longitude,vertical_datum,sea_water_practical_salinity,qcFlag 
DISL,ioos:station:DISL:MHPA:1,2015-05-01T00:00:00Z,30.6671,-87.9365,1.074,0.06,1111122 
DISL,ioos:station:DISL:MHPA:1,2015-05-01T00:30:00Z,30.6671,-87.9365,1.069,0.06,1111122 
DISL,ioos:station:DISL:MHPA:1,2015-05-01T01:00:00Z,30.6671,-87.9365,1.063,0.06,1111122 
DISL,ioos:station:DISL:MHPA:1,2015-05-01T01:30:00Z,30.6671,-87.9365,1.059,0.07,1111122 
DISL,ioos:station:DISL:MHPA:1,2015-05-01T02:00:00Z,30.6671,-87.9365,1.068,0.06,1111122 
DISL,ioos:station:DISL:MHPA:1,2015-05-01T02:30:00Z,30.6671,-87.9365,1.076,0.06,1111122 
DISL,ioos:station:DISL:MHPA:1,2015-05-01T03:00:00Z,30.6671,-87.9365,1.079,0.06,1111122 
DISL,ioos:station:DISL:MHPA:1,2015-05-01T03:30:00Z,30.6671,-87.9365,1.084,0.06,1111122 
DISL,ioos:station:DISL:MHPA:1,2015-05-01T04:00:00Z,30.6671,-87.9365,1.083,0.06,1111122 
DISL,ioos:station:DISL:MHPA:1,2015-05-01T04:30:00Z,30.6671,-87.9365,1.078,0.06,1111122 
DISL,ioos:station:DISL:MHPA:1,2015-05-01T05:00:00Z,30.6671,-87.9365,1.072,0.06,1111122 
DISL,ioos:station:DISL:MHPA:1,2015-05-01T05:30:00Z,30.6671,-87.9365,1.063,0.07,1111122 
DISL,ioos:station:DISL:MHPA:1,2015-05-01T06:00:00Z,30.6671,-87.9365,1.054,0.06,1111122 
DISL,ioos:station:DISL:MHPA:1,2015-05-01T06:30:00Z,30.6671,-87.9365,1.051,0.06,1111122 
DISL,ioos:station:DISL:MHPA:1,2015-05-01T07:00:00Z,30.6671,-87.9365,1.049,0.07,1111122 
DISL,ioos:station:DISL:MHPA:1,2015-05-01T07:30:00Z,30.6671,-87.9365,1.046,0.06,1111122 
DISL,ioos:station:DISL:MHPA:1,2015-05-01T08:00:00Z,30.6671,-87.9365,1.037,0.06,1111122 
DISL,ioos:station:DISL:MHPA:1,2015-05-01T08:30:00Z,30.6671,-87.9365,1.038,0.06,1111122 
DISL,ioos:station:DISL:MHPA:1,2015-05-01T09:00:00Z,30.6671,-87.9365,1.04,0.06,1111122 
DISL,ioos:station:DISL:MHPA:1,2015-05-01T09:30:00Z,30.6671,-87.9365,1.041,0.06,1111122 
DISL,ioos:station:DISL:MHPA:1,2015-05-01T10:00:00Z,30.6671,-87.9365,1.04,0.06,1111122 
DISL,ioos:station:DISL:MHPA:1,2015-05-01T10:30:00Z,30.6671,-87.9365,1.038,0.06,1111122 
DISL,ioos:station:DISL:MHPA:1,2015-05-01T11:00:00Z,30.6671,-87.9365,1.033,0.06,1111122 
DISL,ioos:station:DISL:MHPA:1,2015-05-01T11:30:00Z,30.6671,-87.9365,1.028,0.06,1111122 
DISL,ioos:station:DISL:MHPA:1,2015-05-01T12:00:00Z,30.6671,-87.9365,1.024,0.06,1111122 
DISL,ioos:station:DISL:MHPA:1,2015-05-01T12:30:00Z,30.6671,-87.9365,1.02,0.06,1111122 
DISL,ioos:station:DISL:MHPA:1,2015-05-01T13:00:00Z,30.6671,-87.9365,1.02,0.06,1111122 
DISL,ioos:station:DISL:MHPA:1,2015-05-01T13:30:00Z,30.6671,-87.9365,1.022,0.06,1111122 
DISL,ioos:station:DISL:MHPA:1,2015-05-01T14:00:00Z,30.6671,-87.9365,1.032,0.07,1111122 
DISL,ioos:station:DISL:MHPA:1,2015-05-01T14:30:00Z,30.6671,-87.9365,1.051,0.06,1111122 
DISL,ioos:station:DISL:MHPA:1,2015-05-01T15:00:00Z,30.6671,-87.9365,1.07,0.06,1111122 
DISL,ioos:station:DISL:MHPA:1,2015-05-01T15:30:00Z,30.6671,-87.9365,1.086,0.06,1111122 
DISL,ioos:station:DISL:MHPA:1,2015-05-01T16:00:00Z,30.6671,-87.9365,1.1,0.06,1111122 
DISL,ioos:station:DISL:MHPA:1,2015-05-01T16:30:00Z,30.6671,-87.9365,1.101,0.06,1111122 
DISL,ioos:station:DISL:MHPA:1,2015-05-01T17:00:00Z,30.6671,-87.9365,1.088,0.06,1111122 
DISL,ioos:station:DISL:MHPA:1,2015-05-01T17:30:00Z,30.6671,-87.9365,1.076,0.06,1111122 
DISL,ioos:station:DISL:MHPA:1,2015-05-01T18:00:00Z,30.6671,-87.9365,1.071,0.07,1111122 
DISL,ioos:station:DISL:MHPA:1,2015-05-01T18:30:00Z,30.6671,-87.9365,1.067,0.07,1111122 
DISL,ioos:station:DISL:MHPA:1,2015-05-01T19:00:00Z,30.6671,-87.9365,1.064,0.06,1111122 
DISL,ioos:station:DISL:MHPA:1,2015-05-01T19:30:00Z,30.6671,-87.9365,1.065,0.06,1111122 
DISL,ioos:station:DISL:MHPA:1,2015-05-01T20:00:00Z,30.6671,-87.9365,1.064,0.06,1111122 
DISL,ioos:station:DISL:MHPA:1,2015-05-01T20:30:00Z,30.6671,-87.9365,1.061,0.06,1111122 
DISL,ioos:station:DISL:MHPA:1,2015-05-01T21:00:00Z,30.6671,-87.9365,1.051,0.06,1111122 
DISL,ioos:station:DISL:MHPA:1,2015-05-01T21:30:00Z,30.6671,-87.9365,1.037,0.06,1111122 
DISL,ioos:station:DISL:MHPA:1,2015-05-01T22:00:00Z,30.6671,-87.9365,1.024,0.07,1111122 
DISL,ioos:station:DISL:MHPA:1,2015-05-01T22:30:00Z,30.6671,-87.9365,1.011,0.06,1111122 
DISL,ioos:station:DISL:MHPA:1,2015-05-01T23:00:00Z,30.6671,-87.9365,0.991,0.06,1111122 
DISL,ioos:station:DISL:MHPA:1,2015-05-01T23:30:00Z,30.6671,-87.9365,0.969,0.07,1111122 
DISL,ioos:station:DISL:MHPA:1,2015-05-02T00:00:00Z,30.6671,-87.9365,0.951,0.06,1111122 
DISL,ioos:station:DISL:MHPA:1,2015-05-02T00:30:00Z,30.6671,-87.9365,0.937,0.07,1111122 
DISL,ioos:station:DISL:MHPA:1,2015-05-02T01:00:00Z,30.6671,-87.9365,0.926,0.07,1111122 
DISL,ioos:station:DISL:MHPA:1,2015-05-02T01:30:00Z,30.6671,-87.9365,0.921,0.07,1111122 
DISL,ioos:station:DISL:MHPA:1,2015-05-02T02:00:00Z,30.6671,-87.9365,0.924,0.07,1111122 
DISL,ioos:station:DISL:MHPA:1,2015-05-02T02:30:00Z,30.6671,-87.9365,0.932,0.07,1111122 
DISL,ioos:station:DISL:MHPA:1,2015-05-02T03:00:00Z,30.6671,-87.9365,0.937,0.07,1111122 
DISL,ioos:station:DISL:MHPA:1,2015-05-02T03:30:00Z,30.6671,-87.9365,0.936,0.07,1111122 
DISL,ioos:station:DISL:MHPA:1,2015-05-02T04:00:00Z,30.6671,-87.9365,0.935,0.07,1111122 
DISL,ioos:station:DISL:MHPA:1,2015-05-02T04:30:00Z,30.6671,-87.9365,0.934,0.07,1111122 
DISL,ioos:station:DISL:MHPA:1,2015-05-02T05:00:00Z,30.6671,-87.9365,0.931,0.07,1111122 
DISL,ioos:station:DISL:MHPA:1,2015-05-02T05:30:00Z,30.6671,-87.9365,0.928,0.07,1111122 
DISL,ioos:station:DISL:MHPA:1,2015-05-02T06:00:00Z,30.6671,-87.9365,0.926,0.07,1111122 
DISL,ioos:station:DISL:MHPA:1,2015-05-02T06:30:00Z,30.6671,-87.9365,0.925,0.07,1111122 
DISL,ioos:station:DISL:MHPA:1,2015-05-02T07:00:00Z,30.6671,-87.9365,0.922,0.07,1111122 
DISL,ioos:station:DISL:MHPA:1,2015-05-02T07:30:00Z,30.6671,-87.9365,0.923,0.07,1111122 
DISL,ioos:station:DISL:MHPA:1,2015-05-02T08:00:00Z,30.6671,-87.9365,0.928,0.07,1111122 
DISL,ioos:station:DISL:MHPA:1,2015-05-02T08:30:00Z,30.6671,-87.9365,0.935,0.07,1111122 
DISL,ioos:station:DISL:MHPA:1,2015-05-02T09:00:00Z,30.6671,-87.9365,0.942,0.07,1111122 
DISL,ioos:station:DISL:MHPA:1,2015-05-02T09:30:00Z,30.6671,-87.9365,0.949,0.07,1111122 
DISL,ioos:station:DISL:MHPA:1,2015-05-02T10:00:00Z,30.6671,-87.9365,0.953,0.07,1111122 
DISL,ioos:station:DISL:MHPA:1,2015-05-02T10:30:00Z,30.6671,-87.9365,0.959,0.07,1111122 
DISL,ioos:station:DISL:MHPA:1,2015-05-02T11:00:00Z,30.6671,-87.9365,0.975,0.07,1111122 
DISL,ioos:station:DISL:MHPA:1,2015-05-02T11:30:00Z,30.6671,-87.9365,1.011,0.07,1111122 
DISL,ioos:station:DISL:MHPA:1,2015-05-02T12:00:00Z,30.6671,-87.9365,1.047,0.07,1111122 
DISL,ioos:station:DISL:MHPA:1,2015-05-02T12:30:00Z,30.6671,-87.9365,1.075,0.07,1111122 
DISL,ioos:station:DISL:MHPA:1,2015-05-02T13:00:00Z,30.6671,-87.9365,1.11,0.07,1111122 
DISL,ioos:station:DISL:MHPA:1,2015-05-02T13:30:00Z,30.6671,-87.9365,1.147,0.07,1111122 
DISL,ioos:station:DISL:MHPA:1,2015-05-02T14:00:00Z,30.6671,-87.9365,1.181,0.07,1111122 
DISL,ioos:station:DISL:MHPA:1,2015-05-02T14:30:00Z,30.6671,-87.9365,1.211,0.07,1111122 
DISL,ioos:station:DISL:MHPA:1,2015-05-02T15:00:00Z,30.6671,-87.9365,1.229,0.07,1111122 
DISL,ioos:station:DISL:MHPA:1,2015-05-02T15:30:00Z,30.6671,-87.9365,1.246,0.07,1111122 
DISL,ioos:station:DISL:MHPA:1,2015-05-02T16:00:00Z,30.6671,-87.9365,1.258,0.07,1111122 
DISL,ioos:station:DISL:MHPA:1,2015-05-02T16:30:00Z,30.6671,-87.9365,1.264,0.07,1111122 
DISL,ioos:station:DISL:MHPA:1,2015-05-02T17:00:00Z,30.6671,-87.9365,1.266,0.07,1111122 
DISL,ioos:station:DISL:MHPA:1,2015-05-02T17:30:00Z,30.6671,-87.9365,1.262,0.07,1111122 
DISL,ioos:station:DISL:MHPA:1,2015-05-02T18:00:00Z,30.6671,-87.9365,1.256,0.07,1111122 
DISL,ioos:station:DISL:MHPA:1,2015-05-02T18:30:00Z,30.6671,-87.9365,1.241,0.07,1111122 
DISL,ioos:station:DISL:MHPA:1,2015-05-02T19:00:00Z,30.6671,-87.9365,1.219,0.07,1111122 
DISL,ioos:station:DISL:MHPA:1,2015-05-02T19:30:00Z,30.6671,-87.9365,1.196,0.07,1111122 
DISL,ioos:station:DISL:MHPA:1,2015-05-02T20:00:00Z,30.6671,-87.9365,1.167,0.07,1111122 
DISL,ioos:station:DISL:MHPA:1,2015-05-02T20:30:00Z,30.6671,-87.9365,1.137,0.07,1111122 
DISL,ioos:station:DISL:MHPA:1,2015-05-02T21:00:00Z,30.6671,-87.9365,1.109,0.07,1111122 
DISL,ioos:station:DISL:MHPA:1,2015-05-02T21:30:00Z,30.6671,-87.9365,1.084,0.07,1111122 
DISL,ioos:station:DISL:MHPA:1,2015-05-02T22:00:00Z,30.6671,-87.9365,1.062,0.06,1111122 
DISL,ioos:station:DISL:MHPA:1,2015-05-02T22:30:00Z,30.6671,-87.9365,1.044,0.07,1111122 
DISL,ioos:station:DISL:MHPA:1,2015-05-02T23:00:00Z,30.6671,-87.9365,1.033,0.07,1111122 
DISL,ioos:station:DISL:MHPA:1,2015-05-02T23:30:00Z,30.6671,-87.9365,1.024,0.07,1111122 
DISL,ioos:station:DISL:MHPA:1,2015-05-03T00:00:00Z,30.6671,-87.9365,1.013,0.07,1111122 
DISL,ioos:station:DISL:MHPA:1,2015-05-03T00:30:00Z,30.6671,-87.9365,1.001,0.07,1111122 
DISL,ioos:station:DISL:MHPA:1,2015-05-03T01:00:00Z,30.6671,-87.9365,0.992,0.07,1111122 
DISL,ioos:station:DISL:MHPA:1,2015-05-03T01:30:00Z,30.6671,-87.9365,0.982,0.07,1111122 
DISL,ioos:station:DISL:MHPA:1,2015-05-03T02:00:00Z,30.6671,-87.9365,0.973,0.07,1111122 
DISL,ioos:station:DISL:MHPA:1,2015-05-03T02:30:00Z,30.6671,-87.9365,0.966,0.07,1111122 
DISL,ioos:station:DISL:MHPA:1,2015-05-03T03:00:00Z,30.6671,-87.9365,0.964,0.07,1111122 
DISL,ioos:station:DISL:MHPA:1,2015-05-03T03:30:00Z,30.6671,-87.9365,0.963,0.07,1111122 
DISL,ioos:station:DISL:MHPA:1,2015-05-03T04:00:00Z,30.6671,-87.9365,0.964,0.07,1111122 
DISL,ioos:station:DISL:MHPA:1,2015-05-03T04:30:00Z,30.6671,-87.9365,0.977,0.07,1111122 
DISL,ioos:station:DISL:MHPA:1,2015-05-03T05:00:00Z,30.6671,-87.9365,0.998,0.07,1111122 
DISL,ioos:station:DISL:MHPA:1,2015-05-03T05:30:00Z,30.6671,-87.9365,1.013,0.07,1111122 
DISL,ioos:station:DISL:MHPA:1,2015-05-03T06:00:00Z,30.6671,-87.9365,1.031,0.07,1111122 
DISL,ioos:station:DISL:MHPA:1,2015-05-03T06:30:00Z,30.6671,-87.9365,1.052,0.07,1111122 
DISL,ioos:station:DISL:MHPA:1,2015-05-03T07:00:00Z,30.6671,-87.9365,1.077,0.07,1111122 
DISL,ioos:station:DISL:MHPA:1,2015-05-03T07:30:00Z,30.6671,-87.9365,1.095,0.07,1111122 
DISL,ioos:station:DISL:MHPA:1,2015-05-03T08:00:00Z,30.6671,-87.9365,1.106,0.07,1111122 
DISL,ioos:station:DISL:MHPA:1,2015-05-03T08:30:00Z,30.6671,-87.9365,1.121,0.07,1111122 
DISL,ioos:station:DISL:MHPA:1,2015-05-03T09:00:00Z,30.6671,-87.9365,1.13,0.07,1111122 
DISL,ioos:station:DISL:MHPA:1,2015-05-03T09:30:00Z,30.6671,-87.9365,1.136,0.07,1111122 
DISL,ioos:station:DISL:MHPA:1,2015-05-03T10:00:00Z,30.6671,-87.9365,1.134,0.07,1111122 
DISL,ioos:station:DISL:MHPA:1,2015-05-03T10:30:00Z,30.6671,-87.9365,1.135,0.07,1111122 
DISL,ioos:station:DISL:MHPA:1,2015-05-03T11:00:00Z,30.6671,-87.9365,1.14,0.07,1111122 
DISL,ioos:station:DISL:MHPA:1,2015-05-03T11:30:00Z,30.6671,-87.9365,1.146,0.07,1111122 
DISL,ioos:station:DISL:MHPA:1,2015-05-03T12:00:00Z,30.6671,-87.9365,1.152,0.07,1111122 
DISL,ioos:station:DISL:MHPA:1,2015-05-03T12:30:00Z,30.6671,-87.9365,1.156,0.07,1111122 
DISL,ioos:station:DISL:MHPA:1,2015-05-03T13:00:00Z,30.6671,-87.9365,1.168,0.07,1111122 
DISL,ioos:station:DISL:MHPA:1,2015-05-03T13:30:00Z,30.6671,-87.9365,1.19,0.07,1111122 
DISL,ioos:station:DISL:MHPA:1,2015-05-03T14:00:00Z,30.6671,-87.9365,1.221,0.07,1111122 
DISL,ioos:station:DISL:MHPA:1,2015-05-03T14:30:00Z,30.6671,-87.9365,1.241,0.07,1111122 
DISL,ioos:station:DISL:MHPA:1,2015-05-03T15:00:00Z,30.6671,-87.9365,1.261,0.07,1111122 
DISL,ioos:station:DISL:MHPA:1,2015-05-03T15:30:00Z,30.6671,-87.9365,1.288,0.07,1111122 
DISL,ioos:station:DISL:MHPA:1,2015-05-03T16:00:00Z,30.6671,-87.9365,1.31,0.07,1111122 
DISL,ioos:station:DISL:MHPA:1,2015-05-03T16:30:00Z,30.6671,-87.9365,1.323,0.07,1111122 
DISL,ioos:station:DISL:MHPA:1,2015-05-03T17:00:00Z,30.6671,-87.9365,1.331,0.07,1111122 
DISL,ioos:station:DISL:MHPA:1,2015-05-03T17:30:00Z,30.6671,-87.9365,1.343,0.07,1111122 
DISL,ioos:station:DISL:MHPA:1,2015-05-03T18:00:00Z,30.6671,-87.9365,1.361,0.07,1111122 
DISL,ioos:station:DISL:MHPA:1,2015-05-03T18:30:00Z,30.6671,-87.9365,1.357,0.07,1111122 
DISL,ioos:station:DISL:MHPA:1,2015-05-03T19:00:00Z,30.6671,-87.9365,1.355,0.07,1111122 
DISL,ioos:station:DISL:MHPA:1,2015-05-03T19:30:00Z,30.6671,-87.9365,1.346,0.07,1111122 
DISL,ioos:station:DISL:MHPA:1,2015-05-03T20:00:00Z,30.6671,-87.9365,1.316,0.07,1111122 
DISL,ioos:station:DISL:MHPA:1,2015-05-03T20:30:00Z,30.6671,-87.9365,1.288,0.07,1111122 
DISL,ioos:station:DISL:MHPA:1,2015-05-03T21:00:00Z,30.6671,-87.9365,1.254,0.07,1111122 
DISL,ioos:station:DISL:MHPA:1,2015-05-03T21:30:00Z,30.6671,-87.9365,1.222,0.07,1111122 
DISL,ioos:station:DISL:MHPA:1,2015-05-03T22:00:00Z,30.6671,-87.9365,1.187,0.07,1111122 
DISL,ioos:station:DISL:MHPA:1,2015-05-03T22:30:00Z,30.6671,-87.9365,1.15,0.07,1111122 
DISL,ioos:station:DISL:MHPA:1,2015-05-03T23:00:00Z,30.6671,-87.9365,1.117,0.07,1111122 
DISL,ioos:station:DISL:MHPA:1,2015-05-03T23:30:00Z,30.6671,-87.9365,1.087,0.07,1111122 
DISL,ioos:station:DISL:MHPA:1,2015-05-04T00:00:00Z,30.6671,-87.9365,1.058,0.07,1111122 
DISL,ioos:station:DISL:MHPA:1,2015-05-04T00:30:00Z,30.6671,-87.9365,1.031,0.07,1111122 
DISL,ioos:station:DISL:MHPA:1,2015-05-04T01:00:00Z,30.6671,-87.9365,1.002,0.07,1111122 
DISL,ioos:station:DISL:MHPA:1,2015-05-04T01:30:00Z,30.6671,-87.9365,0.975,0.07,1111122 
DISL,ioos:station:DISL:MHPA:1,2015-05-04T02:00:00Z,30.6671,-87.9365,0.954,0.07,1111122 
DISL,ioos:station:DISL:MHPA:1,2015-05-04T02:30:00Z,30.6671,-87.9365,0.939,0.07,1111122 
DISL,ioos:station:DISL:MHPA:1,2015-05-04T03:00:00Z,30.6671,-87.9365,0.926,0.07,1111122 
DISL,ioos:station:DISL:MHPA:1,2015-05-04T03:30:00Z,30.6671,-87.9365,0.918,0.07,1111122 
DISL,ioos:station:DISL:MHPA:1,2015-05-04T04:00:00Z,30.6671,-87.9365,0.914,0.07,1111122 
DISL,ioos:station:DISL:MHPA:1,2015-05-04T04:30:00Z,30.6671,-87.9365,0.917,0.07,1111122 
DISL,ioos:station:DISL:MHPA:1,2015-05-04T05:00:00Z,30.6671,-87.9365,0.941,0.07,1111122 
DISL,ioos:station:DISL:MHPA:1,2015-05-04T05:30:00Z,30.6671,-87.9365,0.987,0.07,1111122 
DISL,ioos:station:DISL:MHPA:1,2015-05-04T06:00:00Z,30.6671,-87.9365,1.04,0.07,1111122 
DISL,ioos:station:DISL:MHPA:1,2015-05-04T06:30:00Z,30.6671,-87.9365,1.09,0.07,1111122 
DISL,ioos:station:DISL:MHPA:1,2015-05-04T07:00:00Z,30.6671,-87.9365,1.118,0.07,1111122 
DISL,ioos:station:DISL:MHPA:1,2015-05-04T07:30:00Z,30.6671,-87.9365,1.142,0.07,1111122 
DISL,ioos:station:DISL:MHPA:1,2015-05-04T08:00:00Z,30.6671,-87.9365,1.161,0.07,1111122 
DISL,ioos:station:DISL:MHPA:1,2015-05-04T08:30:00Z,30.6671,-87.9365,1.187,0.07,1111122 
DISL,ioos:station:DISL:MHPA:1,2015-05-04T09:00:00Z,30.6671,-87.9365,1.201,0.07,1111122 
DISL,ioos:station:DISL:MHPA:1,2015-05-04T09:30:00Z,30.6671,-87.9365,1.209,0.07,1111122 
DISL,ioos:station:DISL:MHPA:1,2015-05-04T10:00:00Z,30.6671,-87.9365,1.228,0.07,1111122 
DISL,ioos:station:DISL:MHPA:1,2015-05-04T10:30:00Z,30.6671,-87.9365,1.238,0.07,1111122 
DISL,ioos:station:DISL:MHPA:1,2015-05-04T11:00:00Z,30.6671,-87.9365,1.252,0.07,1111122 
DISL,ioos:station:DISL:MHPA:1,2015-05-04T11:30:00Z,30.6671,-87.9365,1.253,0.07,1111122 
DISL,ioos:station:DISL:MHPA:1,2015-05-04T12:00:00Z,30.6671,-87.9365,1.251,0.07,1111122 
DISL,ioos:station:DISL:MHPA:1,2015-05-04T12:30:00Z,30.6671,-87.9365,1.249,0.07,1111122 
DISL,ioos:station:DISL:MHPA:1,2015-05-04T13:00:00Z,30.6671,-87.9365,1.259,0.07,1111122 
DISL,ioos:station:DISL:MHPA:1,2015-05-04T13:30:00Z,30.6671,-87.9365,1.269,0.07,1111122 
DISL,ioos:station:DISL:MHPA:1,2015-05-04T14:00:00Z,30.6671,-87.9365,1.284,0.07,1111122 
DISL,ioos:station:DISL:MHPA:1,2015-05-04T14:30:00Z,30.6671,-87.9365,1.312,0.07,1111122 
DISL,ioos:station:DISL:MHPA:1,2015-05-04T15:00:00Z,30.6671,-87.9365,1.347,0.07,1111122 
DISL,ioos:station:DISL:MHPA:1,2015-05-04T15:30:00Z,30.6671,-87.9365,1.372,0.07,1111122 
DISL,ioos:station:DISL:MHPA:1,2015-05-04T16:00:00Z,30.6671,-87.9365,1.421,0.07,1111122 
DISL,ioos:station:DISL:MHPA:1,2015-05-04T16:30:00Z,30.6671,-87.9365,1.455,0.07,1111122 
DISL,ioos:station:DISL:MHPA:1,2015-05-04T17:00:00Z,30.6671,-87.9365,1.472,0.07,1111122 
DISL,ioos:station:DISL:MHPA:1,2015-05-04T17:30:00Z,30.6671,-87.9365,1.458,0.07,1111122 
DISL,ioos:station:DISL:MHPA:1,2015-05-04T18:00:00Z,30.6671,-87.9365,1.444,0.07,1111122 
DISL,ioos:station:DISL:MHPA:1,2015-05-04T18:30:00Z,30.6671,-87.9365,1.448,0.07,1111122 
DISL,ioos:station:DISL:MHPA:1,2015-05-04T19:00:00Z,30.6671,-87.9365,1.439,0.07,1111122 
DISL,ioos:station:DISL:MHPA:1,2015-05-04T19:30:00Z,30.6671,-87.9365,1.425,0.07,1111122 
DISL,ioos:station:DISL:MHPA:1,2015-05-04T20:00:00Z,30.6671,-87.9365,1.413,0.07,1111122 
DISL,ioos:station:DISL:MHPA:1,2015-05-04T20:30:00Z,30.6671,-87.9365,1.414,0.07,1111122 
DISL,ioos:station:DISL:MHPA:1,2015-05-04T21:00:00Z,30.6671,-87.9365,1.421,0.07,1111122 
DISL,ioos:station:DISL:MHPA:1,2015-05-04T21:30:00Z,30.6671,-87.9365,1.4,0.07,1111122 
DISL,ioos:station:DISL:MHPA:1,2015-05-04T22:00:00Z,30.6671,-87.9365,1.363,0.07,1111122 
DISL,ioos:station:DISL:MHPA:1,2015-05-04T22:30:00Z,30.6671,-87.9365,1.331,0.07,1111122 
DISL,ioos:station:DISL:MHPA:1,2015-05-04T23:00:00Z,30.6671,-87.9365,1.297,0.07,1111122 
DISL,ioos:station:DISL:MHPA:1,2015-05-04T23:30:00Z,30.6671,-87.9365,1.26,0.07,1111122 
DISL,ioos:station:DISL:MHPA:1,2015-05-05T00:00:00Z,30.6671,-87.9365,1.217,0.07,1111122 
DISL,ioos:station:DISL:MHPA:1,2015-05-05T00:30:00Z,30.6671,-87.9365,1.173,0.07,1111122 
DISL,ioos:station:DISL:MHPA:1,2015-05-05T01:00:00Z,30.6671,-87.9365,1.13,0.07,1111122 
DISL,ioos:station:DISL:MHPA:1,2015-05-05T01:30:00Z,30.6671,-87.9365,1.091,0.07,1111122 
DISL,ioos:station:DISL:MHPA:1,2015-05-05T02:00:00Z,30.6671,-87.9365,1.062,0.07,1111122 
DISL,ioos:station:DISL:MHPA:1,2015-05-05T02:30:00Z,30.6671,-87.9365,1.043,0.07,1111122 
DISL,ioos:station:DISL:MHPA:1,2015-05-05T03:00:00Z,30.6671,-87.9365,1.037,0.07,1111122 
DISL,ioos:station:DISL:MHPA:1,2015-05-05T03:30:00Z,30.6671,-87.9365,1.019,0.07,1111122 
DISL,ioos:station:DISL:MHPA:1,2015-05-05T04:00:00Z,30.6671,-87.9365,1.003,0.07,1111122 
DISL,ioos:station:DISL:MHPA:1,2015-05-05T04:30:00Z,30.6671,-87.9365,1.006,0.07,1111122 
DISL,ioos:station:DISL:MHPA:1,2015-05-05T05:00:00Z,30.6671,-87.9365,1.008,0.07,1111122 
DISL,ioos:station:DISL:MHPA:1,2015-05-05T05:30:00Z,30.6671,-87.9365,0.998,0.07,1111122 
DISL,ioos:station:DISL:MHPA:1,2015-05-05T06:00:00Z,30.6671,-87.9365,1.006,0.07,1111122 
DISL,ioos:station:DISL:MHPA:1,2015-05-05T06:30:00Z,30.6671,-87.9365,1.026,0.07,1111122 
DISL,ioos:station:DISL:MHPA:1,2015-05-05T07:00:00Z,30.6671,-87.9365,1.026,0.07,1111122 
DISL,ioos:station:DISL:MHPA:1,2015-05-05T07:30:00Z,30.6671,-87.9365,1.039,0.07,1111122 
DISL,ioos:station:DISL:MHPA:1,2015-05-05T08:00:00Z,30.6671,-87.9365,1.076,0.07,1111122 
DISL,ioos:station:DISL:MHPA:1,2015-05-05T08:30:00Z,30.6671,-87.9365,1.102,0.07,1111122 
DISL,ioos:station:DISL:MHPA:1,2015-05-05T09:00:00Z,30.6671,-87.9365,1.118,0.08,1111122 
DISL,ioos:station:DISL:MHPA:1,2015-05-05T09:30:00Z,30.6671,-87.9365,1.146,0.08,1111122 
DISL,ioos:station:DISL:MHPA:1,2015-05-05T10:00:00Z,30.6671,-87.9365,1.175,0.07,1111122 
DISL,ioos:station:DISL:MHPA:1,2015-05-05T10:30:00Z,30.6671,-87.9365,1.19,0.07,1111122 
DISL,ioos:station:DISL:MHPA:1,2015-05-05T11:00:00Z,30.6671,-87.9365,1.193,0.07,1111122 
DISL,ioos:station:DISL:MHPA:1,2015-05-05T11:30:00Z,30.6671,-87.9365,1.205,0.07,1111122 
DISL,ioos:station:DISL:MHPA:1,2015-05-05T12:00:00Z,30.6671,-87.9365,1.22,0.07,1111122 
DISL,ioos:station:DISL:MHPA:1,2015-05-05T12:30:00Z,30.6671,-87.9365,1.222,0.07,1111122 
DISL,ioos:station:DISL:MHPA:1,2015-05-05T13:00:00Z,30.6671,-87.9365,1.227,0.07,1111122 
DISL,ioos:station:DISL:MHPA:1,2015-05-05T13:30:00Z,30.6671,-87.9365,1.248,0.07,1111122 
DISL,ioos:station:DISL:MHPA:1,2015-05-05T14:00:00Z,30.6671,-87.9365,1.277,0.07,1111122 
DISL,ioos:station:DISL:MHPA:1,2015-05-05T14:30:00Z,30.6671,-87.9365,1.3,0.07,1111122 
DISL,ioos:station:DISL:MHPA:1,2015-05-05T15:00:00Z,30.6671,-87.9365,1.333,0.07,1111122 
DISL,ioos:station:DISL:MHPA:1,2015-05-05T15:30:00Z,30.6671,-87.9365,1.381,0.08,1111122 
DISL,ioos:station:DISL:MHPA:1,2015-05-05T16:00:00Z,30.6671,-87.9365,1.409,0.08,1111122 
DISL,ioos:station:DISL:MHPA:1,2015-05-05T16:30:00Z,30.6671,-87.9365,1.431,0.08,1111122 
DISL,ioos:station:DISL:MHPA:1,2015-05-05T17:00:00Z,30.6671,-87.9365,1.468,0.08,1111122 
DISL,ioos:station:DISL:MHPA:1,2015-05-05T17:30:00Z,30.6671,-87.9365,1.49,0.08,1111122 
DISL,ioos:station:DISL:MHPA:1,2015-05-05T18:00:00Z,30.6671,-87.9365,1.495,0.08,1111122 
DISL,ioos:station:DISL:MHPA:1,2015-05-05T18:30:00Z,30.6671,-87.9365,1.497,0.08,1111122 
DISL,ioos:station:DISL:MHPA:1,2015-05-05T19:00:00Z,30.6671,-87.9365,1.505,0.08,1111122 
DISL,ioos:station:DISL:MHPA:1,2015-05-05T19:30:00Z,30.6671,-87.9365,1.521,0.08,1111122 
DISL,ioos:station:DISL:MHPA:1,2015-05-05T20:00:00Z,30.6671,-87.9365,1.554,0.07,1111122 
DISL,ioos:station:DISL:MHPA:1,2015-05-05T20:30:00Z,30.6671,-87.9365,1.569,0.07,1111122 
DISL,ioos:station:DISL:MHPA:1,2015-05-05T21:00:00Z,30.6671,-87.9365,1.547,0.07,1111122 
DISL,ioos:station:DISL:MHPA:1,2015-05-05T21:30:00Z,30.6671,-87.9365,1.512,0.07,1111122 
DISL,ioos:station:DISL:MHPA:1,2015-05-05T22:00:00Z,30.6671,-87.9365,1.478,0.08,1111122 
DISL,ioos:station:DISL:MHPA:1,2015-05-05T22:30:00Z,30.6671,-87.9365,1.441,0.07,1111122 
DISL,ioos:station:DISL:MHPA:1,2015-05-05T23:00:00Z,30.6671,-87.9365,1.407,0.07,1111122 
DISL,ioos:station:DISL:MHPA:1,2015-05-05T23:30:00Z,30.6671,-87.9365,1.368,0.07,1111122 
DISL,ioos:station:DISL:MHPA:1,2015-05-06T00:00:00Z,30.6671,-87.9365,1.315,0.07,1111122 
DISL,ioos:station:DISL:MHPA:1,2015-05-06T00:30:00Z,30.6671,-87.9365,1.258,0.08,1111122 
DISL,ioos:station:DISL:MHPA:1,2015-05-06T01:00:00Z,30.6671,-87.9365,1.208,0.07,1111122 
DISL,ioos:station:DISL:MHPA:1,2015-05-06T01:30:00Z,30.6671,-87.9365,1.166,0.08,1111122 
DISL,ioos:station:DISL:MHPA:1,2015-05-06T02:00:00Z,30.6671,-87.9365,1.13,0.08,1111122 
DISL,ioos:station:DISL:MHPA:1,2015-05-06T02:30:00Z,30.6671,-87.9365,1.103,0.08,1111122 
DISL,ioos:station:DISL:MHPA:1,2015-05-06T03:00:00Z,30.6671,-87.9365,1.079,0.08,1111122 
DISL,ioos:station:DISL:MHPA:1,2015-05-06T03:30:00Z,30.6671,-87.9365,1.058,0.08,1111122 
DISL,ioos:station:DISL:MHPA:1,2015-05-06T04:00:00Z,30.6671,-87.9365,1.042,0.08,1111122 
DISL,ioos:station:DISL:MHPA:1,2015-05-06T04:30:00Z,30.6671,-87.9365,1.02,0.08,1111122 
DISL,ioos:station:DISL:MHPA:1,2015-05-06T05:00:00Z,30.6671,-87.9365,1.005,0.08,1111122 
DISL,ioos:station:DISL:MHPA:1,2015-05-06T05:30:00Z,30.6671,-87.9365,0.997,0.08,1111122 
DISL,ioos:station:DISL:MHPA:1,2015-05-06T06:00:00Z,30.6671,-87.9365,0.988,0.08,1111122 
DISL,ioos:station:DISL:MHPA:1,2015-05-06T06:30:00Z,30.6671,-87.9365,0.985,0.08,1111122 
DISL,ioos:station:DISL:MHPA:1,2015-05-06T07:00:00Z,30.6671,-87.9365,0.988,0.08,1111122 
DISL,ioos:station:DISL:MHPA:1,2015-05-06T07:30:00Z,30.6671,-87.9365,0.997,0.08,1111122 
DISL,ioos:station:DISL:MHPA:1,2015-05-06T08:00:00Z,30.6671,-87.9365,1.018,0.08,1111122 
DISL,ioos:station:DISL:MHPA:1,2015-05-06T08:30:00Z,30.6671,-87.9365,1.051,0.08,1111122 
DISL,ioos:station:DISL:MHPA:1,2015-05-06T09:00:00Z,30.6671,-87.9365,1.082,0.08,1111122 
DISL,ioos:station:DISL:MHPA:1,2015-05-06T09:30:00Z,30.6671,-87.9365,1.111,0.08,1111122 
DISL,ioos:station:DISL:MHPA:1,2015-05-06T10:00:00Z,30.6671,-87.9365,1.142,0.08,1111122 
DISL,ioos:station:DISL:MHPA:1,2015-05-06T10:30:00Z,30.6671,-87.9365,1.167,0.08,1111122 
DISL,ioos:station:DISL:MHPA:1,2015-05-06T11:00:00Z,30.6671,-87.9365,1.191,0.08,1111122 
DISL,ioos:station:DISL:MHPA:1,2015-05-06T11:30:00Z,30.6671,-87.9365,1.207,0.08,1111122 
DISL,ioos:station:DISL:MHPA:1,2015-05-06T12:00:00Z,30.6671,-87.9365,1.227,0.08,1111122 
DISL,ioos:station:DISL:MHPA:1,2015-05-06T12:30:00Z,30.6671,-87.9365,1.24,0.08,1111122 
DISL,ioos:station:DISL:MHPA:1,2015-05-06T13:00:00Z,30.6671,-87.9365,1.254,0.08,1111122 
DISL,ioos:station:DISL:MHPA:1,2015-05-06T13:30:00Z,30.6671,-87.9365,1.272,0.08,1111122 
DISL,ioos:station:DISL:MHPA:1,2015-05-06T14:00:00Z,30.6671,-87.9365,1.309,0.08,1111122 
DISL,ioos:station:DISL:MHPA:1,2015-05-06T14:30:00Z,30.6671,-87.9365,1.348,0.08,1111122 
DISL,ioos:station:DISL:MHPA:1,2015-05-06T15:00:00Z,30.6671,-87.9365,1.372,0.08,1111122 
DISL,ioos:station:DISL:MHPA:1,2015-05-06T15:30:00Z,30.6671,-87.9365,1.4,0.08,1111122 